International Virtual Aviation Organisation

Russian Federation and Kazakhstan MCD

 

Карточка аэропорта ULPB

Внимание!
Информация на этой странице в стадии наполнения.
Если вы не увидели какой-то информации, или заметили неточность - пожалуйста сообщите нам!
Спасибо!
Команда RU-STAFF
Название аэропортаБесовец
Название аэропорта (англ.)Besovets
Превышение151 ft. (46 m.)
Координаты61°53.07', 34°9.258'
Высота перехода900
Эшелон перехода070
Коды ответчика1000
Зона ОрВДСанкт-Петербург РПИ (ULLL)
Данные METARULPB 302200Z AUTO 36003MPS 9999 // 05/03 Q1016 RMK QFE758/1011
Проноз погоды (TAF)NODATA
NOTAMshow/hide NOTAM
AWOS   TABLE

Информация о ВПП


Диспетчерские позиции

Позывной Наименование органа УВД Частота
ULPB_TWRПетрозаводск-Вышка128.000



Спутниковое изображение